FW1093 Weather Reports


time (UTC)temp
C
wind
direction
speed
KPH
gust
KPH
rain 1hr
cm
rain 24hr
cm
rain mn
cm
humidity
%
barometer
mb
20260906052334 16 295 0.0 1.6 0.00 0.00 0.00 91 1013.5
20260906051342 16 273 0.0 1.6 0.00 0.00 0.00 92 1013.5
20260906050335 16 274 0.0 1.6 0.00 0.00 0.00 94 1013.6
20260906045324 17 276 0.0 1.6 0.00 0.00 0.00 96 1013.7
20260906044313 16 276 0.0 0.0 0.00 0.00 0.00 96 1013.6
20260906043329 16 276 0.0 0.0 0.00 0.00 0.00 96 1013.4
20260906042316 16 276 0.0 0.0 0.00 0.00 0.00 96 1013.5
20260906041326 16 276 0.0 0.0 0.00 0.00 0.00 95 1013.4
20260906040333 17 276 0.0 0.0 0.00 0.00 0.00 95 1013.5
20260906035316 17 276 0.0 0.0 0.00 0.00 0.00 95 1013.4
20260906034333 17 276 0.0 0.0 0.00 0.00 0.00 95 1013.3
20260906033328 17 276 0.0 0.0 0.00 0.00 0.00 95 1013.4
20260906032315 17 276 0.0 0.0 0.00 0.00 0.00 95 1013.4
20260906031350 17 276 0.0 0.0 0.00 0.00 0.00 95 1013.4
20260906030338 17 276 0.0 0.0 0.00 0.00 0.00 95 1013.2
20260906025334 17 276 0.0 0.0 0.00 0.00 0.00 95 1013.4
20260906024322 17 276 0.0 0.0 0.00 0.00 0.00 94 1013.4
20260906023337 17 276 0.0 0.0 0.00 0.00 0.00 94 1013.3
20260906022331 17 276 0.0 0.0 0.00 0.00 0.00 94 1013.2
20260906021346 17 276 0.0 0.0 0.00 0.00 0.00 94 1013.2
20260906020334 17 276 0.0 0.0 0.00 0.00 0.00 93 1013.1
20260906015322 17 276 0.0 0.0 0.00 0.00 0.00 93 1013.1
20260906014313 17 276 0.0 0.0 0.00 0.00 0.00 93 1013.1
20260906013329 18 276 0.0 0.0 0.00 0.00 0.00 93 1013.1
20260906012317 17 276 0.0 0.0 0.00 0.00 0.00 93 1012.9
20260906011323 17 276 0.0 0.0 0.00 0.00 0.00 93 1012.9
20260906010358 18 276 0.0 0.0 0.00 0.00 0.00 92 1012.6
20260906005325 18 276 0.0 0.0 0.00 0.00 0.00 92 1012.6
20260906004329 17 276 0.0 0.0 0.00 0.00 0.00 92 1012.6
20260906003316 18 276 0.0 0.0 0.00 0.00 0.00 91 1012.4
20260906002323 18 276 0.0 0.0 0.00 0.00 0.00 91 1012.4
20260906001313 18 276 0.0 0.0 0.00 0.00 0.00 90 1012.2
20260906000329 18 276 0.0 0.0 0.00 0.00 0.00 91 1012.2
20260905235315 18 276 0.0 0.0 0.00 0.00 0.00 90 1012.0
20260905234326 19 276 0.0 0.0 0.00 0.00 0.00 89 1011.8
20260905233314 20 276 0.0 0.0 0.00 0.00 0.00 89 1011.7
20260905231323 20 276 0.0 0.0 0.00 0.00 0.00 90 1011.5
20260905230330 20 276 0.0 0.0 0.00 0.00 0.00 90 1011.6
20260905225318 20 276 0.0 0.0 0.00 0.00 0.00 89 1011.4
20260905224327 21 276 0.0 0.0 0.00 0.00 0.00 88 1011.4
20260905223342 21 276 0.0 0.0 0.00 0.00 0.00 89 1011.4
20260905222337 21 276 0.0 0.0 0.00 0.00 0.00 89 1011.5
20260905221326 21 276 0.0 0.0 0.00 0.00 0.00 88 1011.3
20260905220334 21 276 0.0 0.0 0.00 0.00 0.00 88 1011.2
20260905215344 21 276 0.0 0.0 0.00 0.00 0.00 88 1011.3
20260905214331 21 276 0.0 0.0 0.00 0.00 0.00 88 1011.3
20260905213320 21 276 0.0 0.0 0.00 0.00 0.00 87 1011.1
20260905212327 21 276 0.0 0.0 0.00 0.00 0.00 86 1011.0
20260905211314 22 276 0.0 0.0 0.00 0.00 0.00 86 1011.0
20260905210323 22 276 0.0 0.0 0.00 0.00 0.00 85 1010.9
20260905205313 21 276 0.0 0.0 0.00 0.00 0.00 85 1010.9
20260905204328 21 276 0.0 0.0 0.00 0.00 0.00 85 1010.8
20260905203356 21 276 0.0 0.0 0.00 0.00 0.00 84 1010.7
20260905202322 21 276 0.0 0.0 0.00 0.00 0.00 83 1010.8
20260905201313 22 276 0.0 0.0 0.00 0.00 0.00 80 1010.8
20260905200328 22 276 0.0 0.0 0.00 0.00 0.00 81 1010.6
20260905195317 22 276 0.0 0.0 0.00 0.00 0.00 82 1010.6
20260905194328 22 276 0.0 0.0 0.00 0.00 0.00 81 1010.7
20260905193315 22 276 0.0 0.0 0.00 0.00 0.00 80 1010.6
20260905192330 22 276 0.0 0.0 0.00 0.00 0.00 79 1010.7
20260905191320 22 276 0.0 0.0 0.00 0.00 0.00 78 1010.6
20260905190336 22 276 0.0 0.0 0.00 0.00 0.00 78 1010.7
20260905185324 23 276 0.0 0.0 0.00 0.00 0.00 76 1010.6
20260905184312 22 276 0.0 0.0 0.00 0.00 0.00 75 1010.6
20260905183327 22 276 0.0 0.0 0.00 0.00 0.00 76 1010.7
20260905182336 23 276 0.0 1.6 0.00 0.00 0.00 75 1010.7
20260905181326 23 277 0.0 3.2 0.00 0.00 0.00 73 1010.7
20260905180334 23 284 0.0 4.8 0.00 0.00 0.00 72 1010.8
20260905175320 22 266 0.0 0.0 0.00 0.00 0.00 77 1010.9
20260905174329 22 266 0.0 0.0 0.00 0.00 0.00 76 1010.9
20260905173317 23 266 0.0 4.8 0.00 0.00 0.00 72 1010.9
20260905172324 23 284 0.0 6.4 0.00 0.00 0.00 71 1010.8
20260905171316 23 269 1.6 4.8 0.00 0.00 0.00 69 1010.8
20260905170325 22 281 0.0 3.2 0.00 0.00 0.00 73 1010.9
20260905165332 22 307 0.0 3.2 0.00 0.00 0.00 74 1010.8
20260905164320 22 260 0.0 3.2 0.00 0.00 0.00 68 1010.8
20260905163336 22 278 0.0 1.6 0.00 0.00 0.00 74 1010.9
20260905162344 22 278 0.0 3.2 0.00 0.00 0.00 76 1010.8
20260905161335 22 281 0.0 3.2 0.00 0.00 0.00 70 1010.9
20260905160323 22 33 1.6 3.2 0.00 0.00 0.00 70 1010.8
20260905155312 22 331 0.0 4.8 0.00 0.00 0.00 70 1010.8
20260905154327 22 290 1.6 4.8 0.00 0.00 0.00 72 1010.8
20260905153320 22 338 1.6 6.4 0.00 0.00 0.00 72 1010.8
20260905152337 22 286 0.0 1.6 0.00 0.00 0.00 75 1010.9
20260905151330 21 281 1.6 4.8 0.00 0.00 0.00 76 1011.0
20260905150324 21 356 0.0 4.8 0.00 0.00 0.00 79 1011.0
20260905145316 21 359 1.6 6.4 0.00 0.00 0.00 79 1011.3
20260905144333 21 317 0.0 3.2 0.00 0.00 0.00 82 1011.0
20260905143323 20 2 1.6 3.2 0.00 0.00 0.00 84 1010.9
20260905142316 20 288 0.0 1.6 0.00 0.00 0.00 86 1010.8
20260905141335 19 290 0.0 1.6 0.00 0.00 0.00 86 1011.0
20260905140325 19 349 0.0 1.6 0.00 0.00 0.00 87 1011.1
20260905135316 18 338 0.0 1.6 0.00 0.00 0.00 88 1011.1
20260905134337 18 276 0.0 1.6 0.00 0.00 0.00 90 1011.4
20260905133327 18 281 0.0 3.2 0.00 0.00 0.00 91 1011.4
20260905132315 17 281 0.0 1.6 0.00 0.00 0.00 95 1011.3
20260905131313 17 274 0.0 1.6 0.00 0.00 0.00 97 1011.4
20260905130334 16 271 0.0 1.6 0.00 0.00 0.00 98 1011.3
20260905125330 16 271 0.0 0.0 0.00 0.00 0.00 98 1011.4
20260905124325 16 271 0.0 0.0 0.00 0.00 0.00 98 1011.4
20260905123338 16 271 0.0 0.0 0.00 0.00 0.00 98 1011.4
20260905122335 15 271 0.0 0.0 0.00 0.00 0.00 98 1011.7
20260905121330 15 271 0.0 0.0 0.00 0.00 0.00 98 1011.7
20260905120338 15 271 0.0 0.0 0.00 0.00 0.00 98 1011.6
20260905115329 15 271 0.0 0.0 0.00 0.00 0.00 98 1011.4
20260905114317 14 271 0.0 0.0 0.00 0.00 0.00 97 1011.2
20260905113324 14 271 0.0 0.0 0.00 0.00 0.00 97 1011.1
20260905112331 13 271 0.0 0.0 0.00 0.00 0.00 97 1011.1
20260905111319 13 271 0.0 0.0 0.00 0.00 0.00 97 1010.9
20260905110328 13 271 0.0 0.0 0.00 0.00 0.00 97 1010.8
20260905105317 13 271 0.0 0.0 0.00 0.00 0.00 97 1010.7
20260905104326 13 271 0.0 0.0 0.00 0.00 0.00 97 1010.6
20260905103316 13 271 0.0 0.0 0.00 0.00 0.00 97 1010.6
20260905102323 13 271 0.0 0.0 0.00 0.00 0.00 96 1010.5
20260905101312 13 271 0.0 0.0 0.00 0.00 0.00 96 1010.5
20260905100319 13 271 0.0 0.0 0.00 0.00 0.00 97 1010.5
20260905095327 13 271 0.0 0.0 0.00 0.00 0.00 96 1010.5
20260905094336 13 271 0.0 0.0 0.00 0.00 0.00 96 1010.4
20260905093324 14 271 0.0 0.0 0.00 0.00 0.00 96 1010.4
20260905092314 14 271 0.0 0.0 0.00 0.00 0.00 96 1010.3
20260905091330 14 271 0.0 0.0 0.00 0.00 0.00 96 1010.3
20260905090323 14 271 0.0 0.0 0.00 0.00 0.00 96 1010.3
20260905085312 14 271 0.0 0.0 0.00 0.36 0.00 96 1010.4
20260905084327 15 271 0.0 0.0 0.00 0.36 0.00 96 1010.5
20260905083343 15 271 0.0 0.0 0.00 0.36 0.00 96 1010.5
20260905082328 15 271 0.0 0.0 0.00 0.36 0.00 96 1010.4
20260905081315 15 271 0.0 0.0 0.00 0.36 0.00 96 1010.4
20260905080324 15 271 0.0 0.0 0.00 0.36 0.00 96 1010.5
20260905075314 15 271 0.0 0.0 0.00 1.85 0.00 96 1010.4
20260905074322 15 271 0.0 0.0 0.00 1.85 0.00 96 1010.3
20260905073331 15 271 0.0 0.0 0.00 1.85 0.00 96 1010.3
20260905072317 15 271 0.0 0.0 0.00 1.85 0.00 96 1010.2
20260905071352 15 271 0.0 0.0 0.00 1.85 0.00 96 1010.4
20260905070337 15 271 0.0 0.0 0.00 1.85 0.00 96 1010.5
20260905065326 15 271 0.0 0.0 0.00 1.85 0.00 96 1010.5
20260905064315 15 271 0.0 0.0 0.00 1.85 0.00 96 1010.5
20260905063331 16 271 0.0 0.0 0.00 1.85 0.00 96 1010.5
20260905062320 16 271 0.0 0.0 0.00 1.85 0.00 96 1010.7
20260905061328 16 271 0.0 0.0 0.00 1.85 0.00 96 1010.8
20260905060314 16 271 0.0 0.0 0.00 1.85 0.00 96 1010.9
20260905055330 16 271 0.0 0.0 0.00 1.85 0.00 95 1011.1
20260905054320 16 271 0.0 0.0 0.00 1.85 0.00 95 1011.1
20260905053355 16 271 0.0 0.0 0.00 1.85 0.00 96 1011.1